Lid_Strength_Index
5 5 5 4 4 3 3 3 2 2 2 2 1 2 1 1 1 1 1 1 1 1 1 0 -0 -0 -0 -0 -1 -1 -0 -1 -0
6 5 5 4 4 3 3 3 2 2 2 2 1 1 1 1 1 1 1 0 1 0 -0 0 -0 -0 -0 -0 -0 -0 -1 -0 -0
6 5 5 4 4 3 3 2 2 2 1 2 1 1 1 1 1 0 0 0 1 0 -0 -0 -0 -0 -0 -0 -1 -1 -0 -0 -0
6 5 5 4 4 3 3 2 2 2 2 2 1 1 1 1 1 0 0 1 0 0 -0 -0 -0 -0 -0 0 0 -0 -0 0 0
6 5 5 4 4 3 3 3 2 2 2 2 1 1 1 1 1 0 1 1 0 -0 0 -0 -0 -0 0 0 -0 -0 0 1 0
6 5 5 4 4 4 4 3 3 2 2 2 1 1 1 1 1 1 1 1 0 0 0 -0 -0 -0 0 0 0 0 0 0 0
6 6 5 5 4 4 3 3 3 2 2 1 1 1 1 1 1 1 1 1 0 0 0 0 -0 -0 0 0 0 0 0 0 0
6 6 6 5 5 4 4 3 3 2 2 2 1 2 2 1 1 1 1 1 0 0 0 0 0 0 0 -0 -0 0 0 0 0
7 7 6 5 4 4 4 3 3 2 2 2 1 2 2 1 1 1 1 1 1 1 1 0 0 0 0 1 2 5 4 3 2
7 6 6 5 5 4 4 3 3 3 2 2 2 2 2 1 2 2 2 2 2 2 1 1 2 1 2 2 3 6 6 4 3
6 6 5 5 4 4 3 2 3 2 2 2 2 2 2 1 2 2 2 1 1 1 1 1 1 2 3 4 6 8 8 6 4
5 6 5 4 3 3 3 2 2 2 2 2 2 3 2 2 1 2 2 2 1 1 1 1 3 4 5 5 7 8 7 5 3
6 5 5 5 3 3 3 2 2 2 3 3 3 2 2 1 1 1 2 1 1 1 1 3 5 7 8 8 8 8 7 5 1
6 6 7 5 4 4 4 2 2 3 3 3 2 1 1 1 1 2 1 1 2 3 4 6 7 8 8 9 8 8 8 6 3
6 7 6 6 7 6 5 3 2 3 4 3 2 1 2 2 1 1 2 3 3 4 5 7 8 9 9 9 9 9 9 8 7
6 6 7 6 6 7 6 5 4 5 4 4 3 4 5 5 5 4 2 3 4 5 6 7 8 8 8 8 8 9 10 9 8
6 6 6 6 6 7 7 6 5 5 5 5 6 7 7 7 7 9 9 9 7 5 5 6 7 7 6 8 9 11 11 10 8
6 6 7 6 6 6 6 6 5 5 5 5 7 7 8 8 8 10 11 13 12 11 13 12 8 6 6 9 10 12 12 12 10
5 6 6 6 6 6 6 7 6 6 6 4 5 6 7 8 8 9 10 10 11 13 13 13 13 13 11 13 13 14 14 15 14
5 5 5 6 6 6 6 6 6 6 4 5 5 5 8 8 8 9 10 10 9 9 11 13 13 13 13 13 14 14 15 15 14